Temp
52 52 50 49 48 46 45 44 44 44 44 43 43 43 43 41 39 39 39 39 39 38
50 49 47 47 46 45 44 43 43 43 43 43 42 41 42 39 38 39 39 39 38 38
47 47 46 46 44 44 42 42 42 42 42 41 41 40 40 38 38 37 37 38 36 36
44 45 45 44 43 43 42 42 41 40 40 39 38 37 37 37 36 34 35 36 35 34
44 44 43 43 43 42 41 41 39 39 38 37 37 36 35 34 34 33 33 33 33 33
42 42 42 42 41 41 40 39 37 37 36 35 35 34 34 34 33 33 32 32 32 31
42 42 43 41 40 39 39 37 36 35 34 34 33 33 33 33 32 32 32 32 32 31
42 42 42 38 37 36 35 36 35 34 32 32 31 32 33 32 31 30 30 31 31 30
40 38 35 34 33 32 31 31 30 29 29 28 31 31 28 28 28 29 28 28 29 29
36 33 32 32 31 30 30 30 29 28 28 27 28 29 27 28 27 27 27 27 27 27
33 31 31 30 29 29 29 28 27 27 26 26 26 28 27 26 25 26 27 26 26 25
32 30 29 27 27 28 27 26 25 25 22 21 22 26 25 25 24 24 24 26 26 25
32 29 28 27 26 26 26 25 25 23 22 20 18 22 24 24 23 21 23 24 26 27
29 28 28 26 26 23 22 22 20 19 20 19 18 17 23 24 22 22 22 22 24 26
MSLP
1026.51 1026.99 1027.46 1027.88 1028.31 1028.90 1029.27 1029.94 1030.23 1030.52 1030.80 1030.89 1031.20 1031.01 1031.23 1031.24 1031.75 1031.95 1031.78 1031.65 1031.56 1031.39
1026.94 1027.47 1027.80 1028.31 1028.76 1029.22 1029.57 1030.20 1030.44 1030.33 1030.60 1031.04 1031.12 1031.22 1030.95 1031.42 1031.55 1031.61 1031.96 1031.89 1031.76 1031.38
1027.04 1027.59 1028.33 1028.65 1029.16 1029.58 1030.03 1030.26 1030.33 1030.71 1030.80 1031.07 1031.19 1031.41 1031.34 1031.59 1031.78 1031.72 1032.03 1031.93 1031.87 1031.58
1027.37 1028.07 1028.42 1028.79 1029.12 1029.49 1029.87 1030.06 1030.33 1030.76 1030.93 1030.95 1031.24 1031.71 1031.43 1031.81 1032.06 1032.04 1032.04 1032.14 1032.01 1031.88
1027.47 1027.99 1028.45 1028.81 1029.07 1029.56 1029.96 1030.16 1030.36 1030.76 1031.02 1031.32 1031.57 1031.73 1031.80 1031.97 1032.07 1032.21 1032.12 1032.09 1032.06 1031.87
1027.25 1027.84 1028.31 1028.66 1029.21 1029.51 1029.77 1030.40 1030.63 1031.01 1031.07 1031.51 1031.70 1031.86 1031.98 1032.01 1032.13 1032.12 1032.03 1031.96 1031.93 1031.84
1026.76 1027.46 1028.05 1028.48 1029.10 1029.51 1029.69 1030.21 1030.63 1030.94 1031.21 1031.59 1031.79 1031.95 1031.97 1031.94 1032.01 1031.92 1031.79 1031.71 1031.71 1031.62
1026.56 1027.45 1027.96 1028.36 1029.09 1029.45 1029.84 1030.25 1030.62 1030.76 1031.28 1031.58 1031.88 1031.83 1031.74 1031.97 1031.97 1031.87 1031.60 1031.43 1031.45 1031.32
1026.21 1026.98 1027.71 1028.36 1029.06 1029.63 1030.01 1030.49 1030.81 1031.14 1031.52 1031.64 1031.70 1031.68 1032.18 1032.29 1032.20 1031.83 1031.42 1031.24 1031.04 1030.98
1025.83 1026.71 1027.46 1028.17 1028.86 1029.46 1029.71 1030.15 1030.68 1031.02 1031.32 1031.48 1031.52 1031.63 1031.96 1032.08 1032.07 1031.63 1031.23 1030.96 1030.83 1030.59
1025.49 1026.30 1027.09 1027.85 1028.49 1028.95 1029.39 1029.84 1030.51 1030.84 1031.11 1031.24 1031.21 1031.27 1031.55 1031.75 1031.67 1031.24 1030.77 1030.57 1030.46 1030.24
1025.04 1025.82 1026.59 1027.31 1027.81 1028.35 1029.10 1029.67 1030.33 1030.56 1030.84 1030.95 1030.99 1030.99 1031.17 1031.35 1031.12 1030.67 1030.25 1030.07 1029.83 1029.72
1024.43 1025.23 1025.98 1026.63 1027.20 1027.92 1028.71 1029.18 1029.74 1030.29 1030.27 1030.54 1030.72 1030.78 1030.75 1030.80 1030.61 1030.07 1029.63 1029.24 1028.90 1028.69
1024.12 1024.86 1025.58 1026.17 1026.78 1027.56 1028.33 1029.14 1029.41 1029.63 1029.87 1030.08 1030.36 1030.52 1030.21 1030.11 1029.96 1029.54 1029.05 1028.60 1028.21 1028.01
Wind_Speed
10 7 7 7 7 6 6 6 7 6 6 7 6 6 5 4 4 5 4 5 4 4
8 8 8 9 8 6 7 6 6 6 6 5 5 5 4 3 4 3 3 4 4 4
9 9 8 8 7 7 7 7 6 5 5 5 5 6 5 4 4 5 4 4 6 5
8 9 8 7 7 7 7 6 6 5 5 5 4 4 4 4 4 5 4 5 5 6
9 8 8 8 8 7 6 5 6 4 4 3 2 2 2 2 3 4 6 6 7 7
9 9 8 8 7 7 7 6 5 3 3 1 1 1 2 2 4 5 6 6 7 8
11 10 9 8 8 7 6 6 5 3 1 1 2 3 4 4 5 6 6 7 7 8
10 9 9 8 7 6 5 5 4 3 2 3 3 4 4 5 6 7 8 8 8 8
11 8 7 8 7 7 6 5 5 4 4 5 4 5 6 8 8 9 9 9 8 8
9 10 9 8 8 8 7 6 5 6 6 6 6 8 9 11 9 9 9 9 9 9
10 10 10 9 9 8 7 7 6 6 7 7 6 9 11 12 10 9 10 9 9 10
11 11 11 10 10 8 7 6 6 5 6 6 6 10 12 11 8 9 9 9 10 10
10 10 11 10 10 8 6 6 6 7 7 7 7 11 13 12 7 7 7 8 10 13
9 9 9 8 7 7 7 6 7 7 6 7 8 9 15 14 8 7 7 7 7 6
Wind_Direction
126 126 118 114 114 114 116 111 109 95 84 74 62 59 56 56 43 24 19 16 12 341
129 130 125 123 123 128 123 121 120 114 96 87 73 57 47 50 44 16 3 349 355 339
137 133 139 136 134 135 131 137 122 108 101 83 65 41 30 34 30 7 0 349 338 338
144 151 152 148 148 149 144 140 122 114 100 75 60 46 32 24 2 349 336 321 328 317
162 163 167 165 160 154 144 134 123 114 103 91 78 52 13 346 332 324 316 320 315 311
174 177 181 171 162 161 148 135 117 124 135 129 47 344 295 286 306 300 300 300 302 304
180 186 184 166 167 162 152 150 152 156 159 251 282 273 273 277 284 286 286 289 286 289
185 188 180 167 169 152 157 167 166 174 210 242 255 266 280 292 288 283 283 284 283 278
184 175 163 163 168 165 171 172 170 200 218 242 254 264 272 277 284 281 278 280 281 286
165 167 176 171 173 182 182 182 194 210 220 235 247 259 260 272 275 277 276 279 283 285
171 176 175 176 184 184 181 187 203 214 224 237 244 251 256 271 271 271 272 274 278 281
183 182 179 186 184 179 181 189 206 210 216 226 241 252 254 263 268 268 273 275 273 272
182 181 187 187 180 173 179 196 202 218 217 219 239 251 252 251 255 262 266 271 273 266
174 181 183 173 169 162 174 199 204 218 229 234 231 240 246 246 252 261 272 275 281 284